Portada
METAR-TAF:

METAR-TAF

Aeropuertos :

Base aérea

Tafraoui, Argelia

latitud: 35-32-33N, longitud: 000-31-56W, altitud: 112 m

Observación

El informe se hizo hace 1 hora y 40 minutos, a las 00:00 UTC
Viento 2 kt del este-noreste
Temperatura 14°C
Humedad 88%
Presión 1018 hPa
Visibilidad: 7000 m
Nubes dispersas a una altura de 2600 ft

METAR: DAOL 020000Z 07002KT 7000 SCT026 14/12 Q1018

Hora: 02:40 (01:40 UTC)


TAF: falta

Observaciones y pronósticos meteorológicos de más de 4000 aeropuertos (mensajes METAR y TAF).

Los puntos amarillos y rojos representan las estaciones disponibles.

Ponga el ratón en el punto deseado para ver el nombre de la estación.

Haga clic para ver las observaciones y los pronósticos meteorológicos.

Para cambiar el mapa : haga clic en los botones verdes con una cruz de color negro para hacer un zoom, en el botón verde con un guión para alejar o en las flechas verdes para mapas adyacentes.


METAR-TAF: